sat.trackr.live / text

‹ back to catalog

STARLINK-4183

NORAD 53014 · 2022-076AE

PAYLOAD ACTIVE UNKNOWN

§ Identity

Operator
Country
US
Launch date
2022-07-07
Launch site
AFETR
Launch vehicle
Mass (kg)
RCS (m²)

Purposes: comms

External: N2YO · Heavens-Above · Gunter

§ Orbital elements

Epoch: 2026-09-19T16:19:00.204672Z

Period
93.79 min
Inclination
53.1605°
Eccentricity
0.0001273
Mean motion
15.35391994 rev/d
Perigee alt
458.9 km
Apogee alt
460.6 km
Semi-major
6,837.9 km
B*
-1.0570e-5
RAAN
282.3055°
Arg perigee
83.0370°
Mean anomaly
277.0778°
Rev number
23,241

§ Raw data

STARLINK-41831 53014U 22076AE  26262.67986348 -.00000749  00000+0 -10570-4 0  99972 53014  53.1605 282.3055 0001273  83.0370 277.0778 15.35391994232413

JSON: /api/v1/satellites/53014 · /tle

For live sub-satellite position, see the globe view (requires WebGL).

§ Visibility from observer

Set your observer location to see the next 7 days of passes ≥ 10°. The values pass through the URL so the page stays shareable.

No JS? Fill the form by hand. The geolocation button needs JavaScript.